Weather in Verkhovazhje

Russia / Vologda Oblast     60°44′34″N   42°02′41″E
temp.,
°C
wind,
m/s
gust,
m/s
humid.,
%
clouds,
%
prec.,
mm/h
press.,
hPa
HPBL,
m
29 july, thu
thu2900:00+15sw2884100 0.0 1008156
03:00+13sw2795100 0.1 1007130
06:00+16ssw2589100 0.1 1005148
09:00+17sw2490100 0.9 1005238
12:00+16sse1196100 2.9 1004129
15:00+17s2594100 4.0 1002394
18:00+17sw2793100 3.1 1000176
21:00+16w399336 7.2 999331
30 july, fri
fri3000:00+14sw2898100 0.0 999224
03:00+14w3109789 0.0 999367
06:00+15wsw299530 0.0 1000355
09:00+20w357117 0.0 1000731
12:00+24wsw4649100 0.4 10001798
15:00+25w354357 0.4 10002267
18:00+23wsw375479 0.0 999409
21:00+16ssw228380 0.0 99930
31 july, sat
sat3100:00+15w2698100 3.0 1000190
03:00+14sw2597100 3.1 999125
06:00+15sw2595100 0.0 999168
09:00+18wsw387669 0.2 998448
12:00+17ssw387589 0.3 998471
15:00+16ssw397952 0.5 998650
18:00+15wsw31092100 1.6 998569
21:00+14ssw289769 1.8 999302
1 august, sun
sun100:00+13wsw389958 0.2 1000347
03:00+13w399834 0.2 1002392
06:00+14wsw389741 0.0 1004379
09:00+19wsw36675 0.0 1004692
12:00+23sw4747100 0.0 10041959
15:00+21ssw4858100 0.1 1004957
18:00+16sw41194100 2.4 1004618
21:00+15sw4129689 2.8 1004638
2 august, mon
mon200:00+14ssw4129721 0.1 1003479
03:00+13ssw3119930 0.1 1003339
06:00+14sw412966 0.0 1004479
09:00+19wsw47662 0.0 10041005
12:00+23wsw694281 0.0 10051975
15:00+24wsw573993 0.0 10051975
18:00+23wsw364651 0.0 10051043
21:00+16ne117097 0.0 100411